Current Version              Previous Version:    01  02  03  04  05  06  07  08  09  10  11  12  13  14  15  16  17  18  19  20  21  22  23  24  25  26  27  28  29  30  
   31  32  33  34  35  36  37  38  39  40  41  42  43  44  45  46  47  48  49  50  51  52  53  54  55  56  57  58  59  60  

[Printable]
474
ASUS44 KFWD 241201
RWRTX
NORTH TEXAS HOURLY WEATHER ROUNDUP
NATIONAL WEATHER SERVICE FORT WORTH TX
700 AM CDT THU APR 24 2014

NOTE: "FAIR" INDICATES FEW OR NO CLOUDS BELOW 12,000 FEET WITH NO
SIGNIFICANT WEATHER AND/OR OBSTRUCTIONS TO VISIBILITY.

TXZ118-119-241300-
DALLAS/FORT WORTH METROPLEX

CITY           SKY/WX    TMP DP  RH WIND       PRES   REMARKS
DFW AIRPORT    MOCLDY    67  61  81 S16G24    29.75F
6HR MIN TEMP:  67; 6HR MAX TEMP:  74;

DALLAS LOVE    MOCLDY    68  60  75 S18G25    29.76F
6HR MIN TEMP:  68; 6HR MAX TEMP:  73;

FTW MEACHAM    MOCLDY    67  61  81 SW10G22   29.78R
6HR MIN TEMP:  66; 6HR MAX TEMP:  73;

DAL-EXECUTIVE  MOCLDY    68  61  78 S10G25    29.77S
6HR MIN TEMP:  68; 6HR MAX TEMP:  73; 6HR PCP: TRACE;

FTW-ALLIANCE   MOCLDY    66  61  84 S9G16     29.76R
6HR MIN TEMP:  65; 6HR MAX TEMP:  72;

FTW-NAS-JRB    MOCLDY    69  59  70 S10       29.83R
6HR MIN TEMP:  69; 6HR MAX TEMP:  76;

FTW-SPINKS     CLOUDY    66  61  82 S15       29.77F
ARLINGTON      MOCLDY    66  61  84 SE16G24   29.76F
6HR MIN TEMP:  66; 6HR MAX TEMP:  73;

GRAND PRAIRIE  PTCLDY    66  61  82 SE13G18   29.79S
$$

TXZ091>094-102>105-117-120-121-131>134-241300-
NORTH CENTRAL TEXAS

CITY           SKY/WX    TMP DP  RH WIND       PRES   REMARKS
DENTON         MOCLDY    67  61  81 S16       29.76R
6HR MIN TEMP:  66; 6HR MAX TEMP:  71;

MCKINNEY       MOCLDY    67  62  84 S17       29.76S
6HR MIN TEMP:  67; 6HR MAX TEMP:  72;

ROCKWALL       PTCLDY    66  62  89 SE13      29.77F
6HR MIN TEMP:  66; 6HR MAX TEMP:  71;

TERRELL        CLEAR     67  65  93 S10       29.80S
6HR MIN TEMP:  66; 6HR MAX TEMP:  72; 6HR PCP: TRACE;

$$

TXZ083>090-098>101-113>116-127>130-139>142-154-155-241300-
WESTERN NORTH TEXAS

CITY           SKY/WX    TMP DP  RH WIND       PRES   REMARKS
WICHITA FALLS  PTCLDY    66  62  87 S18       29.66R
6HR MIN TEMP:  66; 6HR MAX TEMP:  70;

ABILENE        CLEAR     67  60  78 S7        29.78S
6HR MIN TEMP:  67; 6HR MAX TEMP:  72;

ABILENE-DYESS  CLEAR     67  59  77 SW6       29.77S
6HR MIN TEMP:  67; 6HR MAX TEMP:  73;

MINERAL WELLS  MOCLDY    66  60  81 S13       29.74R
6HR MIN TEMP:  66; 6HR MAX TEMP:  72;

BROWNWOOD      CLOUDY    66  59  77 S7        29.80R
$$

TXZ143>147-156>162-174-175-241300-
CENTRAL TEXAS

CITY           SKY/WX    TMP DP  RH WIND       PRES   REMARKS
WACO           PTCLDY    65  62  90 S13       29.79R
6HR MIN TEMP:  65; 6HR MAX TEMP:  71;

WACO-MCGREGOR  CLEAR     64  57  77 S12       29.81R
6HR MIN TEMP:  64; 6HR MAX TEMP:  70;

CORSICANA      MOCLDY    66  62  87 S13       29.81S
6HR MIN TEMP:  66; 6HR MAX TEMP:  71;

TEMPLE         CLEAR     64  57  77 S15       29.82S
6HR MIN TEMP:  64; 6HR MAX TEMP:  70;

KILLEEN        PTCLDY    64  61  88 S14       29.78S
KILLEEN-SKYLRK CLEAR     64  57  77 SE10      29.77S
LAMPASAS       PTCLDY    63  61  93 CALM      29.80R
6HR MIN TEMP:  62; 6HR MAX TEMP:  71;

$$

TXZ095>097-106>112-122>126-135>138-148>153-164>167-241300-
EAST TEXAS

CITY           SKY/WX    TMP DP  RH WIND       PRES   REMARKS
PARIS          PTCLDY    64  61  88 S10       29.80F
6HR MIN TEMP:  63; 6HR MAX TEMP:  70;

TYLER          PTCLDY    67  62  84 S12       29.82S
6HR MIN TEMP:  67; 6HR MAX TEMP:  71;

LONGVIEW       MOCLDY    67  62  84 S9        29.84R
6HR MIN TEMP:  66; 6HR MAX TEMP:  69; 6HR PCP: TRACE;

NACOGDOCHES    CLOUDY    66  63  88 S6        29.88R
6HR MIN TEMP:  64; 6HR MAX TEMP:  66;

LUFKIN         CLOUDY    69  64  84 SE5       29.87R
6HR MIN TEMP:  68; 6HR MAX TEMP:  70;

$$

SUPPLEMENTAL OBSERVATIONS (CENTRAL)

CITY           SKY/WX    TMP DP  RH WIND       PRES   REMARKS
$$

SUPPLEMENTAL OBSERVATIONS (WEST)

CITY           SKY/WX    TMP DP  RH WIND       PRES   REMARKS
$$

SUPPLEMENTAL OBSERVATIONS (EAST)

CITY           SKY/WX    TMP DP  RH WIND       PRES   REMARKS
$$

SUPPLEMENTAL OBSERVATIONS ARE A COLLECTION OF AUTOMATED INSTRUMENTS
THAT ARE MAINTAINED BY A VARIETY OF FEDERAL AND STATE AGENCIES.
CERTAIN ELEMENTS...SUCH AS HUMIDITY VALUES AND SUSTAINED WIND
SPEEDS...MAY BE APPROXIMATED.